| time (UTC) | temp F | wind direction | speed MPH | gust MPH | rain 1hr in | rain 24hr in | rain mn in | humidity % | barometer mb |
| 20260902024003 | 91 | 312 | 3.0 | 10.0 | 0.00 | 0.00 | 0.00 | 20 | 1006.3 |
| 20260902023503 | 91 | 297 | 7.0 | 14.0 | 0.00 | 0.00 | 0.00 | 20 | 1006.3 |
| 20260902023003 | 91 | 286 | 3.0 | 7.0 | 0.00 | 0.00 | 0.00 | 20 | 1006.3 |
| 20260902022503 | 92 | 293 | 7.0 | 15.0 | 0.00 | 0.00 | 0.00 | 20 | 1006.3 |
| 20260902021003 | 93 | 292 | 5.0 | 12.0 | 0.00 | 0.00 | 0.00 | 19 | 1006.3 |
| 20260902020503 | 93 | 283 | 5.0 | 16.0 | 0.00 | 0.00 | 0.00 | 20 | 1006.3 |
| 20260902020003 | 93 | 291 | 9.0 | 13.0 | 0.00 | 0.00 | 0.00 | 20 | 1006.2 |
| 20260902015503 | 94 | 292 | 5.0 | 12.0 | 0.00 | 0.00 | 0.00 | 20 | 1006.3 |
| 20260902015003 | 95 | 256 | 3.0 | 12.0 | 0.00 | 0.00 | 0.00 | 18 | 1006.2 |
| 20260902014503 | 95 | 295 | 5.0 | 12.0 | 0.00 | 0.00 | 0.00 | 19 | 1006.3 |
| 20260902014003 | 96 | 278 | 5.0 | 13.0 | 0.00 | 0.00 | 0.00 | 18 | 1006.3 |
| 20260902013504 | 96 | 292 | 8.0 | 17.0 | 0.00 | 0.00 | 0.00 | 17 | 1006.2 |
| 20260902013004 | 96 | 294 | 5.0 | 16.0 | 0.00 | 0.00 | 0.00 | 17 | 1006.2 |
| 20260902012503 | 97 | 267 | 10.0 | 16.0 | 0.00 | 0.00 | 0.00 | 17 | 1006.3 |
| 20260902012004 | 97 | 278 | 3.0 | 12.0 | 0.00 | 0.00 | 0.00 | 17 | 1006.2 |
| 20260902011504 | 98 | 273 | 7.0 | 15.0 | 0.00 | 0.00 | 0.00 | 17 | 1006.3 |
| 20260902011004 | 98 | 255 | 8.0 | 14.0 | 0.00 | 0.00 | 0.00 | 16 | 1006.3 |
| 20260902010504 | 99 | 259 | 9.0 | 16.0 | 0.00 | 0.00 | 0.00 | 16 | 1006.2 |
| 20260902005504 | 99 | 280 | 4.0 | 10.0 | 0.00 | 0.00 | 0.00 | 15 | 1006.3 |
| 20260902004003 | 100 | 300 | 5.0 | 14.0 | 0.00 | 0.00 | 0.00 | 15 | 1006.3 |
| 20260902003504 | 100 | 282 | 9.0 | 15.0 | 0.00 | 0.00 | 0.00 | 15 | 1006.3 |
| 20260902003003 | 100 | 263 | 7.0 | 15.0 | 0.00 | 0.00 | 0.00 | 15 | 1006.3 |
| 20260902002503 | 100 | 285 | 9.0 | 17.0 | 0.00 | 0.00 | 0.00 | 15 | 1006.3 |
| 20260902002003 | 100 | 287 | 7.0 | 18.0 | 0.00 | 0.00 | 0.00 | 14 | 1006.3 |
| 20260902001503 | 101 | 297 | 7.0 | 18.0 | 0.00 | 0.00 | 0.00 | 14 | 1006.3 |
| 20260902001003 | 101 | 294 | 6.0 | 13.0 | 0.00 | 0.00 | 0.00 | 14 | 1006.3 |
| 20260902000504 | 101 | 296 | 4.0 | 12.0 | 0.00 | 0.00 | 0.00 | 14 | 1006.4 |
| 20260902000003 | 101 | 296 | 7.0 | 13.0 | 0.00 | 0.00 | 0.00 | 13 | 1006.4 |
| 20260901235504 | 101 | 314 | 5.0 | 10.0 | 0.00 | 0.00 | 0.00 | 14 | 1006.4 |
| 20260901235003 | 101 | 286 | 5.0 | 12.0 | 0.00 | 0.00 | 0.00 | 13 | 1006.3 |
| 20260901234503 | 100 | 323 | 8.0 | 17.0 | 0.00 | 0.00 | 0.00 | 13 | 1006.4 |
| 20260901234004 | 101 | 302 | 9.0 | 15.0 | 0.00 | 0.00 | 0.00 | 13 | 1006.3 |
| 20260901233503 | 101 | 280 | 6.0 | 16.0 | 0.00 | 0.00 | 0.00 | 14 | 1006.6 |
| 20260901233003 | 101 | 293 | 7.0 | 12.0 | 0.00 | 0.00 | 0.00 | 14 | 1006.6 |
| 20260901232504 | 101 | 294 | 2.0 | 7.0 | 0.00 | 0.00 | 0.00 | 13 | 1006.7 |
| 20260901232004 | 101 | 290 | 8.0 | 13.0 | 0.00 | 0.00 | 0.00 | 13 | 1006.6 |
| 20260901231503 | 102 | 300 | 8.0 | 13.0 | 0.00 | 0.00 | 0.00 | 13 | 1006.6 |
| 20260901231003 | 102 | 300 | 5.0 | 15.0 | 0.00 | 0.00 | 0.00 | 14 | 1006.6 |
| 20260901230503 | 102 | 293 | 7.0 | 20.0 | 0.00 | 0.00 | 0.00 | 13 | 1006.8 |
| 20260901225504 | 102 | 307 | 4.0 | 12.0 | 0.00 | 0.00 | 0.00 | 13 | 1006.8 |
| 20260901225003 | 102 | 230 | 7.0 | 16.0 | 0.00 | 0.00 | 0.00 | 13 | 1006.9 |
| 20260901224504 | 102 | 267 | 9.0 | 14.0 | 0.00 | 0.00 | 0.00 | 13 | 1006.9 |
| 20260901224003 | 101 | 273 | 7.0 | 15.0 | 0.00 | 0.00 | 0.00 | 13 | 1006.8 |
| 20260901223503 | 102 | 244 | 3.0 | 9.0 | 0.00 | 0.00 | 0.00 | 13 | 1007.0 |
| 20260901223005 | 102 | 229 | 3.0 | 7.0 | 0.00 | 0.00 | 0.00 | 13 | 1007.1 |
| 20260901222503 | 102 | 258 | 5.0 | 12.0 | 0.00 | 0.00 | 0.00 | 13 | 1007.1 |
| 20260901222004 | 101 | 287 | 5.0 | 10.0 | 0.00 | 0.00 | 0.00 | 13 | 1007.1 |
| 20260901221504 | 102 | 249 | 6.0 | 12.0 | 0.00 | 0.00 | 0.00 | 13 | 1007.3 |
| 20260901221004 | 102 | 267 | 3.0 | 9.0 | 0.00 | 0.00 | 0.00 | 12 | 1007.3 |
| 20260901220504 | 102 | 321 | 3.0 | 9.0 | 0.00 | 0.00 | 0.00 | 13 | 1007.3 |
| 20260901220004 | 102 | 291 | 4.0 | 10.0 | 0.00 | 0.00 | 0.00 | 13 | 1007.3 |
| 20260901215503 | 102 | 295 | 3.0 | 9.0 | 0.00 | 0.00 | 0.00 | 13 | 1007.4 |
| 20260901215004 | 102 | 311 | 5.0 | 10.0 | 0.00 | 0.00 | 0.00 | 12 | 1007.4 |
| 20260901214504 | 102 | 284 | 7.0 | 13.0 | 0.00 | 0.00 | 0.00 | 13 | 1007.5 |
| 20260901214003 | 102 | 267 | 5.0 | 12.0 | 0.00 | 0.00 | 0.00 | 14 | 1007.6 |
| 20260901213503 | 100 | 245 | 2.0 | 12.0 | 0.00 | 0.00 | 0.00 | 13 | 1007.6 |
| 20260901213004 | 101 | 248 | 5.0 | 13.0 | 0.00 | 0.00 | 0.00 | 13 | 1007.7 |
| 20260901212503 | 100 | 268 | 6.0 | 15.0 | 0.00 | 0.00 | 0.00 | 13 | 1007.8 |
| 20260901212004 | 100 | 287 | 3.0 | 13.0 | 0.00 | 0.00 | 0.00 | 13 | 1007.9 |
| 20260901211503 | 102 | 258 | 7.0 | 15.0 | 0.00 | 0.00 | 0.00 | 13 | 1007.9 |
| 20260901211003 | 101 | 243 | 3.0 | 10.0 | 0.00 | 0.00 | 0.00 | 13 | 1007.9 |
| 20260901210503 | 101 | 257 | 3.0 | 14.0 | 0.00 | 0.00 | 0.00 | 13 | 1007.9 |
| 20260901210004 | 101 | 232 | 7.0 | 12.0 | 0.00 | 0.00 | 0.00 | 11 | 1007.9 |
| 20260901205503 | 101 | 285 | 3.0 | 9.0 | 0.00 | 0.00 | 0.00 | 13 | 1007.9 |
| 20260901205004 | 101 | 280 | 6.0 | 12.0 | 0.00 | 0.00 | 0.00 | 13 | 1007.9 |
| 20260901204503 | 101 | 250 | 2.0 | 9.0 | 0.00 | 0.00 | 0.00 | 12 | 1008.0 |
| 20260901204003 | 100 | 340 | 3.0 | 8.0 | 0.00 | 0.00 | 0.00 | 13 | 1008.1 |
| 20260901203004 | 100 | 44 | 2.0 | 8.0 | 0.00 | 0.00 | 0.00 | 13 | 1008.3 |
| 20260901202004 | 102 | 40 | 5.0 | 10.0 | 0.00 | 0.00 | 0.00 | 12 | 1008.4 |
| 20260901201504 | 101 | 51 | 3.0 | 7.0 | 0.00 | 0.00 | 0.00 | 12 | 1008.4 |
| 20260901201003 | 101 | 34 | 5.0 | 8.0 | 0.00 | 0.00 | 0.00 | 13 | 1008.5 |
| 20260901200503 | 100 | 16 | 5.0 | 7.0 | 0.00 | 0.00 | 0.00 | 14 | 1008.7 |
| 20260901200004 | 99 | 153 | 2.0 | 3.0 | 0.00 | 0.00 | 0.00 | 14 | 1008.7 |
| 20260901195503 | 98 | 60 | 1.0 | 3.0 | 0.00 | 0.00 | 0.00 | 13 | 1008.8 |
| 20260901195004 | 98 | 30 | 1.0 | 3.0 | 0.00 | 0.00 | 0.00 | 12 | 1008.9 |
| 20260901194503 | 98 | 313 | 2.0 | 3.0 | 0.00 | 0.00 | 0.00 | 14 | 1008.9 |
| 20260901194003 | 98 | 21 | 2.0 | 5.0 | 0.00 | 0.00 | 0.00 | 12 | 1009.0 |
| 20260901193503 | 99 | 268 | 2.0 | 7.0 | 0.00 | 0.00 | 0.00 | 14 | 1009.0 |
| 20260901193003 | 98 | 277 | 2.0 | 6.0 | 0.00 | 0.00 | 0.00 | 14 | 1009.1 |
| 20260901192003 | 98 | 127 | 2.0 | 6.0 | 0.00 | 0.00 | 0.00 | 13 | 1009.3 |
| 20260901191503 | 97 | 190 | 2.0 | 5.0 | 0.00 | 0.00 | 0.00 | 14 | 1009.4 |
| 20260901191004 | 97 | 167 | 1.0 | 3.0 | 0.00 | 0.00 | 0.00 | 14 | 1009.4 |
| 20260901190504 | 97 | 253 | 2.0 | 6.0 | 0.00 | 0.00 | 0.00 | 13 | 1009.5 |
| 20260901190003 | 98 | 225 | 5.0 | 7.0 | 0.00 | 0.00 | 0.00 | 13 | 1009.5 |
| 20260901185504 | 98 | 267 | 4.0 | 10.0 | 0.00 | 0.00 | 0.00 | 15 | 1009.5 |
| 20260901185003 | 98 | 305 | 5.0 | 9.0 | 0.00 | 0.00 | 0.00 | 14 | 1009.5 |
| 20260901184504 | 96 | 279 | 3.0 | 7.0 | 0.00 | 0.00 | 0.00 | 15 | 1009.5 |
| 20260901184004 | 97 | 247 | 4.0 | 8.0 | 0.00 | 0.00 | 0.00 | 13 | 1009.6 |
| 20260901183004 | 97 | 235 | 3.0 | 8.0 | 0.00 | 0.00 | 0.00 | 14 | 1009.7 |
| 20260901182503 | 96 | 24 | 3.0 | 6.0 | 0.00 | 0.00 | 0.00 | 13 | 1009.8 |
| 20260901182003 | 96 | 354 | 1.0 | 3.0 | 0.00 | 0.00 | 0.00 | 15 | 1009.9 |
| 20260901181003 | 96 | 202 | 3.0 | 7.0 | 0.00 | 0.00 | 0.00 | 14 | 1009.9 |
| 20260901180504 | 96 | 232 | 2.0 | 6.0 | 0.00 | 0.00 | 0.00 | 14 | 1009.9 |
| 20260901180003 | 97 | 290 | 2.0 | 5.0 | 0.00 | 0.00 | 0.00 | 15 | 1009.9 |
| 20260901175503 | 96 | 272 | 2.0 | 7.0 | 0.00 | 0.00 | 0.00 | 13 | 1009.9 |
| 20260901175003 | 96 | 275 | 3.0 | 7.0 | 0.00 | 0.00 | 0.00 | 16 | 1009.9 |
| 20260901174004 | 95 | 300 | 1.0 | 7.0 | 0.00 | 0.00 | 0.00 | 16 | 1010.0 |
| 20260901173503 | 94 | 254 | 3.0 | 6.0 | 0.00 | 0.00 | 0.00 | 16 | 1010.0 |
| 20260901173003 | 94 | 244 | 3.0 | 6.0 | 0.00 | 0.00 | 0.00 | 16 | 1010.0 |
| 20260901172504 | 94 | 208 | 3.0 | 7.0 | 0.00 | 0.00 | 0.00 | 18 | 1010.0 |
| 20260901171503 | 93 | 236 | 3.0 | 9.0 | 0.00 | 0.00 | 0.00 | 18 | 1010.0 |
| 20260901170504 | 93 | 259 | 2.0 | 7.0 | 0.00 | 0.00 | 0.00 | 16 | 1010.0 |
| 20260901165004 | 92 | 219 | 2.0 | 8.0 | 0.00 | 0.00 | 0.00 | 18 | 1009.9 |
| 20260901164504 | 91 | 217 | 5.0 | 6.0 | 0.00 | 0.00 | 0.00 | 17 | 1009.8 |
| 20260901164003 | 91 | 228 | 5.0 | 8.0 | 0.00 | 0.00 | 0.00 | 16 | 1009.8 |
| 20260901163503 | 92 | 200 | 5.0 | 7.0 | 0.00 | 0.00 | 0.00 | 18 | 1009.7 |
| 20260901163004 | 91 | 229 | 3.0 | 10.0 | 0.00 | 0.00 | 0.00 | 18 | 1009.7 |
| 20260901162504 | 90 | 263 | 6.0 | 10.0 | 0.00 | 0.00 | 0.00 | 16 | 1009.6 |
| 20260901161003 | 90 | 278 | 5.0 | 13.0 | 0.00 | 0.00 | 0.00 | 16 | 1009.5 |
| 20260901160504 | 90 | 276 | 5.0 | 12.0 | 0.00 | 0.00 | 0.00 | 14 | 1009.5 |
| 20260901155004 | 89 | 308 | 3.0 | 7.0 | 0.00 | 0.00 | 0.00 | 14 | 1009.5 |
| 20260901154504 | 89 | 307 | 2.0 | 8.0 | 0.00 | 0.00 | 0.00 | 15 | 1009.5 |
| 20260901154003 | 89 | 321 | 3.0 | 8.0 | 0.00 | 0.00 | 0.00 | 15 | 1009.5 |
| 20260901153504 | 88 | 8 | 3.0 | 7.0 | 0.00 | 0.00 | 0.00 | 16 | 1009.5 |
| 20260901153003 | 88 | 271 | 3.0 | 8.0 | 0.00 | 0.00 | 0.00 | 15 | 1009.5 |
| 20260901151503 | 87 | 234 | 1.0 | 7.0 | 0.00 | 0.00 | 0.00 | 15 | 1009.5 |
| 20260901151003 | 86 | 324 | 2.0 | 7.0 | 0.00 | 0.00 | 0.00 | 17 | 1009.5 |
| 20260901150503 | 86 | 173 | 3.0 | 6.0 | 0.00 | 0.00 | 0.00 | 15 | 1009.5 |
| 20260901145503 | 85 | 138 | 1.0 | 3.0 | 0.00 | 0.00 | 0.00 | 16 | 1009.5 |
| 20260901145004 | 85 | 69 | 0.0 | 6.0 | 0.00 | 0.00 | 0.00 | 17 | 1009.5 |
| 20260901144503 | 85 | 240 | 1.0 | 5.0 | 0.00 | 0.00 | 0.00 | 16 | 1009.5 |
| 20260901144004 | 84 | 227 | 1.0 | 3.0 | 0.00 | 0.00 | 0.00 | 17 | 1009.4 |
| 20260901143503 | 83 | 277 | 1.0 | 5.0 | 0.00 | 0.00 | 0.00 | 16 | 1009.4 |
| 20260901143003 | 82 | 322 | 4.0 | 7.0 | 0.00 | 0.00 | 0.00 | 18 | 1009.3 |
| 20260901142503 | 82 | 15 | 3.0 | 6.0 | 0.00 | 0.00 | 0.00 | 17 | 1009.3 |
| 20260901142004 | 82 | 44 | 3.0 | 5.0 | 0.00 | 0.00 | 0.00 | 16 | 1009.3 |
| 20260901141503 | 82 | 81 | 2.0 | 5.0 | 0.00 | 0.00 | 0.00 | 17 | 1009.3 |
| 20260901141004 | 81 | 71 | 1.0 | 3.0 | 0.00 | 0.00 | 0.00 | 17 | 1009.2 |
| 20260901140503 | 81 | 83 | 4.0 | 6.0 | 0.00 | 0.00 | 0.00 | 17 | 1009.1 |
| 20260901140003 | 81 | 121 | 1.0 | 3.0 | 0.00 | 0.00 | 0.00 | 17 | 1009.0 |
| 20260901135003 | 82 | 339 | 0.0 | 3.0 | 0.00 | 0.00 | 0.00 | 16 | 1008.9 |
| 20260901134504 | 82 | 66 | 2.0 | 7.0 | 0.00 | 0.00 | 0.00 | 16 | 1008.9 |
| 20260901134003 | 82 | 5 | 2.0 | 3.0 | 0.00 | 0.00 | 0.00 | 16 | 1008.7 |
| 20260901133503 | 82 | 292 | 1.0 | 3.0 | 0.00 | 0.00 | 0.00 | 16 | 1008.5 |
| 20260901133004 | 83 | 315 | 2.0 | 6.0 | 0.00 | 0.00 | 0.00 | 16 | 1008.4 |
| 20260901132004 | 83 | 298 | 5.0 | 13.0 | 0.00 | 0.00 | 0.00 | 16 | 1008.3 |
| 20260901131504 | 83 | 309 | 6.0 | 16.0 | 0.00 | 0.00 | 0.00 | 15 | 1008.2 |
| 20260901131003 | 83 | 288 | 5.0 | 10.0 | 0.00 | 0.00 | 0.00 | 15 | 1008.2 |
| 20260901130004 | 83 | 296 | 6.0 | 12.0 | 0.00 | 0.00 | 0.00 | 15 | 1008.0 |
| 20260901125503 | 83 | 299 | 5.0 | 12.0 | 0.00 | 0.00 | 0.00 | 15 | 1008.0 |
| 20260901125003 | 83 | 310 | 6.0 | 16.0 | 0.00 | 0.00 | 0.00 | 15 | 1007.9 |
| 20260901124504 | 83 | 298 | 6.0 | 14.0 | 0.00 | 0.00 | 0.00 | 15 | 1007.9 |
| 20260901124003 | 83 | 278 | 7.0 | 14.0 | 0.00 | 0.00 | 0.00 | 15 | 1008.0 |
| 20260901123003 | 83 | 301 | 7.0 | 15.0 | 0.00 | 0.00 | 0.00 | 15 | 1008.1 |
| 20260901122503 | 83 | 298 | 7.0 | 15.0 | 0.00 | 0.00 | 0.00 | 15 | 1008.1 |
| 20260901122003 | 83 | 289 | 7.0 | 12.0 | 0.00 | 0.00 | 0.00 | 15 | 1008.1 |
| 20260901121503 | 83 | 280 | 9.0 | 15.0 | 0.00 | 0.00 | 0.00 | 15 | 1008.1 |
| 20260901121004 | 83 | 308 | 5.0 | 16.0 | 0.00 | 0.00 | 0.00 | 16 | 1008.1 |
| 20260901120503 | 83 | 314 | 3.0 | 8.0 | 0.00 | 0.00 | 0.00 | 16 | 1008.0 |
| 20260901120004 | 83 | 301 | 3.0 | 8.0 | 0.00 | 0.00 | 0.00 | 16 | 1008.1 |
| 20260901115503 | 83 | 283 | 4.0 | 8.0 | 0.00 | 0.00 | 0.00 | 16 | 1008.2 |
| 20260901115004 | 83 | 301 | 4.0 | 10.0 | 0.00 | 0.00 | 0.00 | 17 | 1008.2 |
| 20260901114503 | 82 | 284 | 3.0 | 7.0 | 0.00 | 0.00 | 0.00 | 17 | 1008.3 |
| 20260901114003 | 83 | 303 | 3.0 | 9.0 | 0.00 | 0.00 | 0.00 | 17 | 1008.2 |
| 20260901113503 | 83 | 291 | 5.0 | 10.0 | 0.00 | 0.00 | 0.00 | 17 | 1008.1 |
| 20260901113004 | 83 | 303 | 5.0 | 12.0 | 0.00 | 0.00 | 0.00 | 18 | 1008.0 |
| 20260901112504 | 83 | 304 | 3.0 | 12.0 | 0.00 | 0.00 | 0.00 | 18 | 1008.1 |
| 20260901111503 | 83 | 288 | 7.0 | 12.0 | 0.00 | 0.00 | 0.00 | 19 | 1008.2 |
| 20260901111003 | 83 | 298 | 6.0 | 12.0 | 0.00 | 0.00 | 0.00 | 20 | 1008.2 |
| 20260901110003 | 82 | 299 | 5.0 | 14.0 | 0.00 | 0.00 | 0.00 | 20 | 1008.2 |
| 20260901105503 | 83 | 298 | 6.0 | 12.0 | 0.00 | 0.00 | 0.00 | 20 | 1008.1 |
| 20260901105003 | 83 | 295 | 5.0 | 12.0 | 0.00 | 0.00 | 0.00 | 21 | 1008.2 |
| 20260901104504 | 83 | 301 | 5.0 | 12.0 | 0.00 | 0.00 | 0.00 | 21 | 1008.1 |
| 20260901104003 | 83 | 297 | 6.0 | 12.0 | 0.00 | 0.00 | 0.00 | 21 | 1008.1 |
| 20260901103503 | 83 | 285 | 6.0 | 14.0 | 0.00 | 0.00 | 0.00 | 21 | 1008.3 |
| 20260901103004 | 83 | 290 | 7.0 | 12.0 | 0.00 | 0.00 | 0.00 | 22 | 1008.1 |
| 20260901102503 | 83 | 297 | 5.0 | 14.0 | 0.00 | 0.00 | 0.00 | 22 | 1008.1 |
| 20260901102003 | 83 | 302 | 4.0 | 12.0 | 0.00 | 0.00 | 0.00 | 22 | 1008.1 |
| 20260901101503 | 83 | 307 | 5.0 | 12.0 | 0.00 | 0.00 | 0.00 | 22 | 1008.0 |
| 20260901101003 | 83 | 301 | 3.0 | 9.0 | 0.00 | 0.00 | 0.00 | 22 | 1007.9 |
| 20260901100503 | 83 | 309 | 3.0 | 10.0 | 0.00 | 0.00 | 0.00 | 22 | 1008.0 |
| 20260901100004 | 83 | 326 | 5.0 | 8.0 | 0.00 | 0.00 | 0.00 | 23 | 1007.9 |
| 20260901095504 | 83 | 309 | 2.0 | 8.0 | 0.00 | 0.00 | 0.00 | 23 | 1007.9 |
| 20260901095003 | 83 | 304 | 4.0 | 12.0 | 0.00 | 0.00 | 0.00 | 22 | 1007.9 |
| 20260901094503 | 83 | 289 | 5.0 | 13.0 | 0.00 | 0.00 | 0.00 | 22 | 1008.0 |
| 20260901094003 | 84 | 308 | 6.0 | 12.0 | 0.00 | 0.00 | 0.00 | 22 | 1007.9 |
| 20260901093504 | 84 | 306 | 6.0 | 12.0 | 0.00 | 0.00 | 0.00 | 22 | 1007.9 |
| 20260901093003 | 84 | 316 | 4.0 | 13.0 | 0.00 | 0.00 | 0.00 | 22 | 1007.9 |
| 20260901092503 | 83 | 292 | 6.0 | 12.0 | 0.00 | 0.00 | 0.00 | 22 | 1007.8 |
| 20260901092003 | 83 | 305 | 5.0 | 13.0 | 0.00 | 0.00 | 0.00 | 21 | 1007.8 |
| 20260901091503 | 83 | 310 | 5.0 | 15.0 | 0.00 | 0.00 | 0.00 | 22 | 1007.8 |
| 20260901091003 | 84 | 303 | 6.0 | 14.0 | 0.00 | 0.00 | 0.00 | 22 | 1007.8 |
| 20260901090503 | 84 | 306 | 6.0 | 15.0 | 0.00 | 0.00 | 0.00 | 21 | 1007.9 |
| 20260901090004 | 84 | 287 | 6.0 | 15.0 | 0.00 | 0.00 | 0.00 | 22 | 1007.8 |
| 20260901085503 | 84 | 308 | 9.0 | 18.0 | 0.00 | 0.00 | 0.00 | 21 | 1007.7 |
| 20260901084504 | 84 | 296 | 7.0 | 15.0 | 0.00 | 0.00 | 0.00 | 21 | 1007.7 |
| 20260901083503 | 84 | 299 | 6.0 | 12.0 | 0.00 | 0.00 | 0.00 | 21 | 1007.7 |
| 20260901083004 | 84 | 301 | 5.0 | 12.0 | 0.00 | 0.00 | 0.00 | 21 | 1007.6 |
| 20260901082503 | 84 | 309 | 3.0 | 13.0 | 0.00 | 0.00 | 0.00 | 21 | 1007.6 |
| 20260901082004 | 84 | 311 | 5.0 | 14.0 | 0.00 | 0.00 | 0.00 | 20 | 1007.7 |
| 20260901081503 | 84 | 308 | 7.0 | 14.0 | 0.00 | 0.00 | 0.00 | 20 | 1007.7 |
| 20260901081004 | 84 | 302 | 5.0 | 15.0 | 0.00 | 0.00 | 0.00 | 20 | 1007.8 |
| 20260901080503 | 84 | 301 | 9.0 | 21.0 | 0.00 | 0.00 | 0.00 | 20 | 1007.7 |
| 20260901075503 | 84 | 312 | 5.0 | 16.0 | 0.00 | 0.00 | 0.00 | 20 | 1007.7 |
| 20260901075003 | 84 | 307 | 6.0 | 14.0 | 0.00 | 0.00 | 0.00 | 20 | 1007.6 |
| 20260901074503 | 84 | 295 | 7.0 | 13.0 | 0.00 | 0.00 | 0.00 | 20 | 1007.6 |
| 20260901074004 | 84 | 314 | 6.0 | 14.0 | 0.00 | 0.00 | 0.00 | 20 | 1007.4 |
| 20260901073504 | 84 | 295 | 9.0 | 17.0 | 0.00 | 0.00 | 0.00 | 20 | 1007.4 |
| 20260901073003 | 85 | 308 | 6.0 | 12.0 | 0.00 | 0.00 | 0.00 | 20 | 1007.4 |
| 20260901072503 | 85 | 319 | 4.0 | 12.0 | 0.00 | 0.00 | 0.00 | 20 | 1007.4 |
| 20260901072003 | 85 | 294 | 6.0 | 13.0 | 0.00 | 0.00 | 0.00 | 20 | 1007.6 |
| 20260901071503 | 85 | 298 | 7.0 | 15.0 | 0.00 | 0.00 | 0.00 | 20 | 1007.6 |
| 20260901071005 | 85 | 312 | 7.0 | 16.0 | 0.00 | 0.00 | 0.00 | 20 | 1007.4 |
| 20260901070504 | 85 | 295 | 6.0 | 12.0 | 0.00 | 0.00 | 0.00 | 20 | 1007.5 |
| 20260901065504 | 85 | 296 | 4.0 | 10.0 | 0.00 | 0.00 | 0.00 | 19 | 1007.5 |
| 20260901064003 | 86 | 301 | 5.0 | 10.0 | 0.00 | 0.00 | 0.00 | 20 | 1007.3 |
| 20260901063504 | 86 | 313 | 5.0 | 12.0 | 0.00 | 0.00 | 0.00 | 21 | 1007.2 |
| 20260901063003 | 86 | 312 | 5.0 | 13.0 | 0.00 | 0.00 | 0.00 | 21 | 1007.2 |
| 20260901062503 | 85 | 304 | 3.0 | 7.0 | 0.00 | 0.00 | 0.00 | 21 | 1007.1 |
| 20260901062004 | 86 | 305 | 3.0 | 9.0 | 0.00 | 0.00 | 0.00 | 21 | 1007.1 |
| 20260901061503 | 86 | 316 | 5.0 | 12.0 | 0.00 | 0.00 | 0.00 | 21 | 1007.0 |
| 20260901061003 | 86 | 301 | 7.0 | 15.0 | 0.00 | 0.00 | 0.00 | 21 | 1007.0 |
| 20260901060504 | 86 | 309 | 9.0 | 15.0 | 0.00 | 0.00 | 0.00 | 22 | 1006.9 |
| 20260901055503 | 86 | 284 | 7.0 | 14.0 | 0.00 | 0.00 | 0.00 | 22 | 1006.9 |
| 20260901055004 | 86 | 309 | 7.0 | 16.0 | 0.00 | 0.00 | 0.00 | 21 | 1007.1 |
| 20260901054004 | 86 | 293 | 9.0 | 21.0 | 0.00 | 0.00 | 0.00 | 21 | 1007.2 |
| 20260901053503 | 86 | 301 | 10.0 | 18.0 | 0.00 | 0.00 | 0.00 | 22 | 1007.2 |
| 20260901053004 | 87 | 294 | 9.0 | 16.0 | 0.00 | 0.00 | 0.00 | 23 | 1007.3 |
| 20260901052503 | 87 | 297 | 10.0 | 18.0 | 0.00 | 0.00 | 0.00 | 24 | 1007.3 |
| 20260901051503 | 87 | 300 | 6.0 | 16.0 | 0.00 | 0.00 | 0.00 | 24 | 1007.2 |
| 20260901051003 | 87 | 306 | 6.0 | 14.0 | 0.00 | 0.00 | 0.00 | 24 | 1007.2 |
| 20260901050504 | 87 | 302 | 10.0 | 20.0 | 0.00 | 0.00 | 0.00 | 24 | 1007.1 |
| 20260901050003 | 87 | 299 | 10.0 | 18.0 | 0.00 | 0.00 | 0.00 | 24 | 1006.9 |
| 20260901045503 | 87 | 296 | 9.0 | 18.0 | 0.00 | 0.00 | 0.00 | 24 | 1006.9 |
| 20260901045004 | 87 | 288 | 9.0 | 17.0 | 0.00 | 0.00 | 0.00 | 24 | 1007.1 |
| 20260901044506 | 88 | 290 | 7.0 | 15.0 | 0.00 | 0.00 | 0.00 | 24 | 1007.1 |
| 20260901044003 | 88 | 303 | 7.0 | 15.0 | 0.00 | 0.00 | 0.00 | 24 | 1007.0 |
| 20260901043504 | 88 | 301 | 10.0 | 16.0 | 0.00 | 0.00 | 0.00 | 24 | 1006.9 |
| 20260901043004 | 88 | 305 | 6.0 | 14.0 | 0.00 | 0.00 | 0.00 | 25 | 1006.8 |
| 20260901042503 | 88 | 317 | 5.0 | 14.0 | 0.00 | 0.00 | 0.00 | 25 | 1006.8 |
| 20260901042003 | 88 | 299 | 5.0 | 12.0 | 0.00 | 0.00 | 0.00 | 24 | 1006.8 |
| 20260901041003 | 89 | 296 | 8.0 | 17.0 | 0.00 | 0.00 | 0.00 | 24 | 1006.8 |
| 20260901040003 | 89 | 317 | 6.0 | 12.0 | 0.00 | 0.00 | 0.00 | 24 | 1006.8 |
| 20260901035504 | 89 | 305 | 7.0 | 17.0 | 0.00 | 0.00 | 0.00 | 24 | 1006.7 |
| 20260901035003 | 90 | 310 | 8.0 | 22.0 | 0.00 | 0.00 | 0.00 | 24 | 1006.4 |
| 20260901034504 | 90 | 288 | 7.0 | 20.0 | 0.00 | 0.00 | 0.00 | 25 | 1006.3 |
| 20260901034003 | 90 | 294 | 10.0 | 23.0 | 0.00 | 0.00 | 0.00 | 25 | 1006.3 |
| 20260901033504 | 90 | 309 | 8.0 | 14.0 | 0.00 | 0.00 | 0.00 | 26 | 1006.2 |
| 20260901033004 | 90 | 308 | 8.0 | 13.0 | 0.00 | 0.00 | 0.00 | 26 | 1006.2 |
| 20260901032504 | 90 | 306 | 7.0 | 12.0 | 0.00 | 0.00 | 0.00 | 26 | 1006.0 |
| 20260901032003 | 90 | 313 | 9.0 | 18.0 | 0.00 | 0.00 | 0.00 | 27 | 1005.9 |
| 20260901030503 | 92 | 308 | 8.0 | 15.0 | 0.00 | 0.00 | 0.00 | 27 | 1005.7 |
| 20260901030003 | 92 | 294 | 6.0 | 15.0 | 0.00 | 0.00 | 0.00 | 27 | 1005.6 |
| 20260901025503 | 92 | 289 | 7.0 | 13.0 | 0.00 | 0.00 | 0.00 | 28 | 1005.5 |